Weather History for Ocala, FL

Change the Weather History Date:

Saturday, November 24, 2012

  Actual Average Record
Temperature  
Mean Temperature 54 °F -  
Max Temperature 68 °F 72 °F 82 °F (2001)
Min Temperature 39 °F 48 °F 30 °F (2002)
Degree Days  
Heating Degree Days 10    
Growing Degree Days 4 (Base 50)    
Moisture  
Dew Point 41 °F    
Average Humidity 77    
Maximum Humidity 88    
Minimum Humidity 28    
Precipitation  
Precipitation 0.00 in - - ()
Sea Level Pressure  
Sea Level Pressure 30.09 in    
Wind  
Wind Speed 3 mph (WSW)    
Max Wind Speed 10 mph    
Max Gust Speed -    
Visibility 5 miles    
Events Fog    
Averages and records for this station are not official NWS values.
T = Trace of Precipitation, MM = Missing Value Source: NWS Daily Summary

Daily Weather History Graph

Daily Weather History Graph

Search for Another Location

Airport:

Trip Planner

Search our weather history database for the weather conditions in past years. The results will help you decide how hot, cold, wet, or windy it might be!

Date:

Astronomy

Nov. 24, 2012 Rise Set
Actual Time 7:00 AM EST 5:31 PM EST
Civil Twilight 6:34 AM EST 5:56 PM EST
Nautical Twilight 6:05 AM EST 6:25 PM EST
Astronomical Twilight 5:37 AM EST 6:54 PM EST
Moon 3:03 PM EST (11/24) 3:29 AM EST (11/24)
Length of Visible Light 11h 21m
Length of Day
10h 30m
Waxing Gibbous, 87% of the Moon is Illuminated
Nov 24
Waxing Gibbous
Nov 28
Full
Dec 6
Last Quarter
Dec 13
New
Dec 20
First Quarter

Hourly Weather History & Observations

Time (EST) Temp. Windchill Dew Point Humidity Pressure Visibility Wind Dir Wind Speed Gust Speed Precip Events Conditions
12:15 AM 50.0 °F - 46.4 °F 87% 30.10 in 1.0 mi WSW 3.5 mph - N/A   Clear
12:35 AM 51.8 °F - 48.2 °F 88% 30.10 in 1.8 mi WSW 3.5 mph - N/A   Clear
12:55 AM 51.8 °F - 48.2 °F 88% 30.09 in 1.5 mi WSW 3.5 mph - N/A   Clear
1:15 AM 51.8 °F - 48.2 °F 88% 30.09 in 1.5 mi West 3.5 mph - N/A   Clear
1:35 AM 50.0 °F - 44.6 °F 82% 30.09 in 0.8 mi WSW 3.5 mph - N/A   Unknown
1:55 AM 50.0 °F - 44.6 °F 82% 30.08 in 0.5 mi SW 3.5 mph - N/A   Unknown
2:15 AM 46.4 °F - 39.2 °F 76% 30.08 in 0.2 mi Calm Calm - N/A   Unknown
2:35 AM 46.4 °F 45.2 °F 42.8 °F 87% 30.08 in 0.2 mi SSW 3.5 mph - N/A   Unknown
2:55 AM 42.8 °F 41.1 °F 39.2 °F 87% 30.07 in 1.5 mi South 3.5 mph - N/A   Clear
3:15 AM 42.8 °F - 39.2 °F 87% 30.07 in 0.2 mi Calm Calm - N/A   Unknown
3:35 AM 44.6 °F - 39.2 °F 81% 30.06 in 0.2 mi Calm Calm - N/A   Unknown
3:55 AM 44.6 °F 43.1 °F 39.2 °F 81% 30.06 in 0.2 mi South 3.5 mph - N/A   Unknown
4:15 AM 44.6 °F - 39.2 °F 81% 30.06 in 0.2 mi Calm Calm - N/A   Unknown
4:35 AM 44.6 °F 42.2 °F 39.2 °F 81% 30.07 in 0.2 mi SSW 4.6 mph - N/A   Unknown
4:55 AM 44.6 °F 43.1 °F 41.0 °F 87% 30.06 in 0.2 mi SSW 3.5 mph - N/A   Unknown
5:15 AM 44.6 °F 43.1 °F 39.2 °F 81% 30.07 in 0.2 mi SSW 3.5 mph - N/A   Unknown
5:35 AM 42.8 °F - 39.2 °F 87% 30.07 in 0.2 mi Calm Calm - N/A   Unknown
5:55 AM 42.8 °F - 39.2 °F 87% 30.07 in 0.2 mi Calm Calm - N/A   Unknown
6:15 AM 44.6 °F - 39.2 °F 81% 30.08 in 0.2 mi Calm Calm - N/A   Overcast
6:35 AM 44.6 °F - 39.2 °F 81% 30.09 in 0.2 mi Calm Calm - N/A   Overcast
6:50 AM 42.8 °F - 39.2 °F 87% 30.09 in 0.5 mi Calm Calm - N/A Fog Fog
7:50 AM 44.6 °F - 41.0 °F 87% 30.11 in 0.2 mi Calm Calm - N/A Fog Fog
8:17 AM 48.2 °F - 44.6 °F 87% 30.11 in 4.0 mi Calm Calm - N/A   Clear
8:50 AM 55.4 °F - 51.8 °F 88% 30.13 in 5.0 mi NNW 8.1 mph - N/A   Clear
9:50 AM 60.8 °F - 48.2 °F 63% 30.19 in 10.0 mi North 8.1 mph - N/A   Clear
10:50 AM 64.4 °F - 46.4 °F 52% 30.13 in 10.0 mi NW 6.9 mph - N/A   Clear
12:50 PM 66.2 °F - 48.2 °F 52% 30.07 in 10.0 mi NNW 6.9 mph - N/A   Clear
1:50 PM 66.2 °F - 46.4 °F 49% 30.05 in 10.0 mi NW 8.1 mph - N/A   Clear
2:50 PM 68.0 °F - 44.6 °F 43% 30.03 in 10.0 mi West 4.6 mph - N/A   Clear
3:50 PM 68.0 °F - 33.8 °F 28% 30.03 in 10.0 mi NW 9.2 mph - N/A   Clear
4:50 PM 66.2 °F - 35.6 °F 32% 30.04 in 10.0 mi NNW 10.4 mph - N/A   Clear
5:50 PM 59.0 °F - 42.8 °F 55% 30.06 in 10.0 mi Calm Calm - N/A   Clear
6:50 PM 53.6 °F - 42.8 °F 67% 30.08 in 10.0 mi Calm Calm - N/A   Clear
8:15 PM 46.4 °F - 41.0 °F 81% 30.10 in 10.0 mi Calm Calm - N/A   Clear
8:35 PM 46.4 °F - 41.0 °F 81% 30.11 in 10.0 mi Calm Calm - N/A   Clear
8:55 PM 46.4 °F - 41.0 °F 81% 30.11 in 10.0 mi Calm Calm - N/A   Clear
9:15 PM 44.6 °F - 39.2 °F 81% 30.12 in 10.0 mi Calm Calm - N/A   Clear
9:35 PM 44.6 °F - 39.2 °F 81% 30.12 in 10.0 mi Calm Calm - N/A   Clear
9:55 PM 44.6 °F - 39.2 °F 81% 30.13 in 10.0 mi Calm Calm - N/A   Clear
10:15 PM 44.6 °F - 39.2 °F 81% 30.13 in 10.0 mi Calm Calm - N/A   Clear
10:35 PM 42.8 °F - 37.4 °F 81% 30.13 in 10.0 mi Calm Calm - N/A   Clear
10:55 PM 42.8 °F - 37.4 °F 81% 30.13 in 8.0 mi Calm Calm - N/A   Clear
11:15 PM 42.8 °F - 37.4 °F 81% 30.13 in 10.0 mi Calm Calm - N/A   Clear
11:35 PM 41.0 °F - 37.4 °F 87% 30.13 in 10.0 mi Calm Calm - N/A   Clear
11:55 PM 39.2 °F - 35.6 °F 87% 30.13 in 10.0 mi Calm Calm - N/A   Clear